User: anonymous   Login
Location: Pleiades Observatory
(40.1297°N, 91.5238°W)
Time: 01:42:14
(UTC-06:00)
Language:

Cosmos 1842 Rocket - Orbit

View from above orbital plane
View from above orbital plane
View from above satellite
View from above satellite

Ground track
Ground track

The orbit data is extracted from the following two-line orbital elements,

1 17912U 87038B   17057.84070880  .00000115  00000-0  11234-4 0  9993
2 17912  82.5045 153.9088 0019093 231.2030 128.7480 14.82916399611373
Epoch (UTC): 26 February 2017 20:10:37
Eccentricity: 0.0019093
inclination: 82.5045°
perigee height: 607 km
apogee height: 633 km
right ascension of ascending node: 153.9088°
argument of perigee: 231.2030°
revolutions per day: 14.82916399
mean anomaly at epoch: 128.7480°
orbit number at epoch: 61137

The dashed part of the orbit path shows where the satellite is in the earth's shadow,  

DLR